Location: *
(48.1353°N, 1.6620°W)
Time: 04:32:57
(UTC+00:00)

Daily predictions for brighter satellites

Satellite Brightness Start Highest point End
(mag) Time Altitude Azimuth Time Altitude Azimuth Time Altitude Azimuth
SL-16 R/B 4.4 00:11:06 22° NE 00:11:06 22° NE 00:15:09 10° N
CZ-4C R/B 4.5 00:05:24 10° NW 00:07:57 24° NW 00:07:57 24° NW
Cosmos 2278 Rocket 4.5 00:22:37 18° NE 00:22:37 18° NE 00:24:05 10° NNE
Resurs 1-4 Rocket 4.1 01:17:47 10° NNE 01:20:11 24° NE 01:20:11 24° NE
ATLAS 3B R/B 4.1 01:35:37 26° E 01:35:37 26° E 01:39:47 10° ENE
Cosmos 2369 Rocket 4.1 01:38:09 23° ENE 01:38:09 23° ENE 01:41:17 10° NE
SL-16 R/B 3.6 01:56:12 36° NNW 01:56:12 36° NNW 01:59:44 10° NNW
Cosmos 2278 Rocket 3.9 02:04:28 25° NNW 02:04:28 25° NNW 02:07:50 10° NNE
Lacrosse 5 3.5 02:07:00 31° NE 02:07:00 31° NE 02:10:21 10° E
CZ-2D R/B 3.3 02:03:31 10° NNE 02:06:41 38° NNE 02:06:41 38° NNE
USA 267 4.1 02:03:11 10° ENE 02:09:17 43° N 02:10:40 38° NW
Cosmos 1943 Rocket 3.1 02:12:38 43° ENE 02:12:38 43° ENE 02:16:44 10° NE
CENTAUR R/B 3.3 02:13:07 44° ESE 02:13:07 44° ESE 02:19:08 10° NE
ATLAS 5 CENTAUR R/B 3.8 02:23:19 21° NNW 02:23:19 21° NNW 02:26:45 10° NNE
Cosmos 540 Rocket 4.5 02:34:18 40° N 02:34:18 40° N 02:37:44 10° NNE
Cosmos 2344 3.4 02:34:41 73° SSW 02:35:31 83° SE 02:43:52 10° NE
IRS-1D 4.1 02:35:33 10° NNE 02:39:46 56° N 02:39:46 56° N
USA 238 DEB 3.8 02:42:33 62° NW 02:42:49 62° NW 02:49:46 10° NE
USA 238 3.8 02:42:38 62° NW 02:42:55 62° NW 02:49:53 10° NE
ADEOS II 2.4 02:38:32 10° NNE 02:43:28 63° E 02:43:28 63° E
Timation 2 Rocket 4.5 02:42:52 10° NNW 02:48:51 55° NE 02:54:41 10° SE
IRS-P3 4.4 02:46:54 10° N 02:51:20 58° NNW 02:51:20 58° NNW
CZ-4B R/B 4.4 02:56:07 11° N 02:56:07 11° N 02:56:18 10° N
Cosmos 2263 4.2 02:53:02 71° ESE 02:53:04 71° ESE 02:58:40 10° NNE
Cosmos 1707 Rocket 4.4 02:54:54 49° NE 02:54:54 49° NE 02:58:28 10° NNE
Cosmos 1733 Rocket 4.1 02:55:43 10° N 02:59:59 43° ENE 03:01:17 34° ESE
Cosmos 1400 Rocket 4.1 03:01:26 37° ENE 03:01:26 37° ENE 03:04:28 10° NNE
Resurs 1-4 Rocket 3.3 02:57:46 10° N 03:01:16 30° NW 03:01:16 30° NW
Cosmos 1656 Rocket 4.2 03:01:25 45° SSE 03:02:33 52° ESE 03:08:02 10° NE
ARIANE 5 R/B 2.4 03:01:41 10° NNE 03:06:32 77° NNW 03:06:32 77° NNW
Unknown 4.4 03:10:08 50° NE 03:10:08 50° NE 03:13:14 10° ENE
Unknown 4.4 03:10:31 51° ENE 03:10:31 51° ENE 03:13:42 10° ENE
Cosmos 836 Rocket 4.4 03:10:28 72° NW 03:10:28 72° NW 03:15:27 10° NNE
Unknown 4.3 03:12:07 53° ENE 03:12:07 53° ENE 03:15:21 10° ENE
Unknown 4.2 03:13:54 56° NE 03:13:54 56° NE 03:17:14 10° ENE
Unknown 4.1 03:15:18 58° NE 03:15:18 58° NE 03:18:41 10° ENE
Unknown 4.1 03:16:56 59° NE 03:16:56 59° NE 03:20:23 10° ENE
Unknown 4.5 03:17:29 42° NNE 03:17:29 42° NNE 03:20:29 10° ENE
CZ-2C R/B 3.3 03:14:09 10° NNE 03:17:35 59° NE 03:17:35 59° NE
Unknown 4.0 03:20:05 63° NE 03:20:05 63° NE 03:23:40 10° ENE
Cosmos 2369 Rocket 2.3 03:19:57 56° WNW 03:20:18 57° WNW 03:25:56 10° NNE
Unknown 3.9 03:21:41 65° NE 03:21:41 65° NE 03:25:20 10° ENE
Cosmos 1346 Rocket 4.4 03:17:33 10° N 03:21:22 36° ENE 03:25:09 10° SE
Unknown 3.8 03:23:17 67° NNE 03:23:17 67° NNE 03:27:00 10° ENE
ATLAS 3B R/B 2.6 03:22:53 53° WSW 03:24:30 73° NW 03:31:08 10° NE
Unknown 3.8 03:24:54 68° NNE 03:24:54 68° NNE 03:28:41 10° ENE
Cosmos 1092 Rocket 3.8 03:22:26 43° S 03:24:36 88° W 03:30:49 10° N
NOSS 3-2 (A) 4.0 03:24:03 38° WNW 03:25:29 44° NW 03:32:00 10° NE
Meteor 1-26 Rocket 4.5 03:26:12 46° WNW 03:26:12 46° WNW 03:31:28 10° N
Cosmos 1500 4.3 03:22:46 10° N 03:26:23 43° ENE 03:28:49 18° SE
Cosmos 1536 4.4 03:23:26 10° N 03:27:07 35° ENE 03:30:47 10° SE
Unknown 4.1 03:27:45 48° N 03:27:45 48° N 03:31:17 10° ENE
Unknown 3.7 03:28:05 70° N 03:28:05 70° N 03:32:00 10° ENE
Unknown 3.8 03:29:57 66° N 03:29:57 66° N 03:33:57 10° ENE
NOSS 3-2 (C) 3.7 03:29:11 44° W 03:30:40 54° NW 03:37:21 10° NE
Unknown 4.5 03:30:55 36° N 03:30:55 36° N 03:34:10 10° ENE
Cosmos 44 3.1 03:30:33 71° WSW 03:31:03 81° NW 03:35:50 10° NE
Unknown 3.7 03:31:30 66° NNW 03:31:30 66° NNW 03:35:34 10° ENE
Unknown 3.7 03:31:33 68° NNW 03:31:33 68° NNW 03:35:36 10° ENE
Unknown 4.3 03:32:34 41° N 03:32:34 41° N 03:36:06 10° ENE
Cosmos 1833 4.2 03:27:26 10° NW 03:39:23 - S 03:32:40 54° W
Unknown 3.7 03:34:27 68° NNW 03:34:29 68° NNW 03:38:37 10° ENE
Unknown 3.7 03:37:40 64° NW 03:37:50 65° NNW 03:41:58 10° ENE
Meteor 1-28 Rocket 4.1 03:39:57 37° NNW 03:39:57 37° NNW 03:42:24 10° NNW
Unknown 4.3 03:38:40 35° N 03:38:53 35° N 03:42:07 10° ENE
CZ-2D R/B 3.8 03:35:33 10° N 03:38:51 47° NW 03:38:51 47° NW
Unknown 3.7 03:39:15 63° NW 03:39:29 64° NNW 03:43:37 10° ENE
Unknown 3.7 03:40:51 61° NW 03:41:09 63° NNW 03:45:17 10° ENE
Nadezhda 4 Rocket 4.2 03:40:58 42° W 03:41:57 45° WNW 03:47:49 10° N
H-2A R/B 4.0 03:38:32 10° NNE 03:41:58 31° E 03:45:26 10° SSE
Iridium 4 Rocket 2.9 03:41:10 55° S 03:42:06 85° W 03:46:19 10° N
Unknown 3.7 03:42:28 59° NW 03:42:51 62° NNW 03:46:59 10° ENE
Cosmos 2084 Rocket 3.6 03:44:40 53° SSW 03:44:40 53° SSW 03:48:16 10° SSE
Cosmos 773 Rocket 4.3 03:42:54 26° S 03:45:45 64° ESE 03:50:52 10° NNE
FALCON 9 DEB 4.3 03:45:54 33° NNW 03:46:31 36° N 03:49:49 10° ENE
Cosmos 783 Rocket 4.4 03:45:54 46° SW 03:47:26 72° WNW 03:52:42 10° NNE
Unknown 3.7 03:48:06 44° ENE 03:48:06 44° ENE 03:50:21 10° ESE
CZ-2D R/B 3.9 03:45:00 10° NNW 03:48:01 16° NW 03:48:01 16° NW
Meteor 2-6 Rocket 4.3 03:45:40 34° SSW 03:48:22 72° WNW 03:54:22 10° N
Lacrosse 5 1.7 03:46:16 27° NW 03:49:05 84° SW 03:54:08 10° SE
Unknown 3.8 03:48:50 51° WNW 03:49:30 59° NNW 03:53:37 10° ENE
Cosmos 1627 Rocket 4.4 03:46:09 25° SSW 03:50:07 77° W 03:56:34 10° N
Unknown 3.9 03:50:27 49° WNW 03:51:11 58° NNW 03:55:17 10° ENE
USA 267 4.1 03:45:24 10° E 03:51:34 45° NNE 03:57:43 10° WNW
CZ-2C R/B 4.4 03:48:03 10° NE 03:52:17 28° E 03:56:35 10° SSE
Unknown 3.9 03:52:01 47° WNW 03:52:49 57° NNW 03:56:55 10° ENE
Unknown 3.8 03:52:31 42° NNW 03:53:00 46° NNE 03:56:08 10° E
SL-24 DEB 4.2 03:51:43 36° SSW 03:53:30 63° W 03:58:14 10° N
Unknown 3.9 03:53:37 45° WNW 03:54:30 56° NNW 03:58:35 10° ENE
Cosmos 1943 Rocket 3.1 03:54:11 28° WNW 03:55:22 31° NW 04:00:18 10° NNE
Unknown 4.0 03:55:14 44° WNW 03:56:11 56° NNW 04:00:16 10° ENE
BREEZE-M DEB (TANK) 4.4 03:53:27 31° W 03:56:58 79° S 04:20:42 10° E
Cosmos 1812 2.6 03:57:55 35° S 03:59:28 88° E 04:03:21 10° N
Unknown 4.0 03:58:26 41° WNW 03:59:32 54° NNW 04:03:37 10° ENE
Starlink (trailer) 4.0 04:00:02 39° WNW 04:01:12 54° NNW 04:05:16 10° ENE
Cosmos 1862 Rocket 3.5 04:00:42 35° SSW 04:02:31 68° WNW 04:07:00 10° N
Unknown 4.0 04:01:38 38° WNW 04:02:53 53° NNW 04:06:57 10° ENE
CENTAUR R/B 3.0 04:00:18 30° W 04:03:15 50° NW 04:10:22 10° NE
Unknown 4.1 04:03:13 36° WNW 04:04:31 52° NNW 04:08:36 10° ENE
Meteor 1-27 Rocket 3.8 03:58:57 11° S 04:04:36 88° ESE 04:10:24 10° NNE
SL-4 R/B 4.1 04:07:14 11° S 04:07:14 11° S 04:07:26 10° S
IDEFIX/ARIANE 42P 2.7 03:59:50 10° NNE 04:05:08 79° ESE 04:10:25 10° S
Okean 1-7 4.3 04:02:52 10° SSE 04:07:01 43° E 04:11:11 10° NNE
Cosmos 1553 Rocket 3.9 04:00:46 10° N 04:07:02 81° W 04:13:11 10° S
Cosmos 2242 Rocket 3.5 04:05:17 18° S 04:08:35 85° W 04:13:06 10° N
USA 81 4.0 04:04:51 17° SSW 04:08:57 69° W 04:14:15 10° N
ATLAS 5 CENTAUR R/B 4.3 04:06:26 10° NNW 04:09:26 15° N 04:12:40 10° NE
PSLV R/B 3.8 04:06:48 10° S 04:10:53 64° WSW 04:14:59 10° NNW
Unknown 4.1 04:09:38 31° WNW 04:11:14 50° NNW 04:15:17 10° ENE
Gbstr 26 Del rocket 4.5 04:04:21 13° WNW 04:11:44 73° SSW 04:19:24 10° SE
Unknown 4.2 04:11:15 30° WNW 04:12:55 49° NNW 04:16:58 10° ENE
Unknown 4.2 04:11:33 30° WNW 04:13:15 49° NNW 04:17:17 10° ENE
Unknown 4.2 04:14:24 28° WNW 04:16:13 48° NNW 04:20:15 10° ENE
Unknown 4.2 04:16:06 27° WNW 04:18:01 47° NNW 04:22:03 10° ENE
Unknown 4.2 04:16:52 27° WNW 04:18:48 48° NNW 04:22:51 10° ENE
Meteor 1-11 Rocket 3.8 04:14:30 10° NNW 04:19:54 51° W 04:25:13 10° SSW
Cosmos 2026 Rocket 4.2 04:15:53 18° SW 04:20:26 51° WNW 04:26:39 10° N
Cosmos 1666 2.8 04:17:11 10° N 04:20:58 75° E 04:24:44 10° SSE
Unknown 4.3 04:19:16 25° WNW 04:21:19 47° N 04:25:21 10° ENE
Cosmos 1340 2.7 04:17:44 10° NNW 04:21:26 51° W 04:25:06 10° S
BREEZE-M DEB (TANK) 2.6 04:20:12 27° WSW 04:22:21 79° SSE 04:24:52 10° ENE
SeaSat 1 2.8 04:17:48 10° NE 04:22:44 66° ESE 04:27:37 10° SSW
BREEZE-M DEB (TANK) 3.3 04:15:58 20° W 04:22:53 75° S 04:26:24 10° E
Cosmos 1315 Rocket 2.9 04:20:18 21° SSW 04:22:54 60° WNW 04:27:01 10° N
Unknown 4.3 04:20:48 24° WNW 04:22:55 47° N 04:26:56 10° ENE
ADEOS II 3.4 04:19:05 10° N 04:23:02 22° WNW 04:24:24 20° W
Unknown 4.3 04:21:15 24° WNW 04:23:22 47° N 04:27:24 10° ENE
Spot 2 4.3 04:19:11 10° N 04:23:38 51° WNW 04:26:16 21° SW
Unknown 4.3 04:23:54 23° WNW 04:26:09 46° N 04:30:10 10° ENE
Cosmos 1538 Rocket 3.9 04:23:57 15° SSW 04:28:15 74° WNW 04:33:27 10° NNE
Unknown 4.3 04:27:09 21° WNW 04:29:34 45° N 04:33:34 10° ENE
Cosmos 1908 Rocket 3.6 04:26:39 10° NNW 04:30:54 55° W 04:35:08 10° S
Unknown 4.3 04:28:46 21° WNW 04:31:15 45° N 04:35:16 10° ENE
ATLAS CENTAUR R/B 2.9 04:28:14 10° NNW 04:32:34 39° NE 04:36:33 10° ESE
Unknown 4.4 04:30:14 19° WNW 04:32:47 42° N 04:36:40 10° ENE
Unknown 4.4 04:30:20 20° WNW 04:32:53 45° N 04:36:54 10° ENE
PSLV R/B 3.7 04:28:40 10° N 04:32:57 54° WNW 04:36:44 13° SSW
Unknown 4.4 04:31:57 19° WNW 04:34:35 44° N 04:38:35 10° ENE
Unknown 4.1 04:34:33 14° WNW 04:37:19 44° NNE 04:40:43 10° E
Falcon 9 debris 4.0 04:34:37 14° WNW 04:37:22 48° NNE 04:40:45 10° E
Okean 2 Rocket 4.2 04:32:59 10° N 04:37:23 48° ENE 04:41:45 10° SSE
Cosmos 1400 Rocket 4.3 04:37:05 18° WNW 04:37:29 18° WNW 04:40:13 10° NNW
Cosmos 1733 Rocket 4.3 04:34:09 10° NW 04:37:30 21° W 04:38:17 20° W
Unknown 4.4 04:35:10 18° WNW 04:37:56 44° N 04:41:56 10° ENE
Meteor 1-31 Rocket 3.4 04:34:35 10° NNE 04:38:28 57° E 04:42:16 10° S
BREEZE-M DEB (TANK) 4.5 04:26:52 10° WNW 04:39:16 43° SW 04:42:54 10° SSE
Unknown 4.4 04:36:47 17° WNW 04:39:38 43° N 04:43:36 10° ENE
Unknown 4.4 04:38:21 17° WNW 04:41:17 43° N 04:45:16 10° ENE
Aureole 2 Rocket 3.1 04:42:08 22° WNW 04:42:25 22° WNW 04:44:36 10° N
Unknown 4.4 04:39:54 16° WNW 04:42:53 43° N 04:46:52 10° ENE
Unknown 4.4 04:41:45 15° WNW 04:44:51 43° N 04:48:50 10° ENE
ARIANE 5 R/B 4.3 04:42:29 10° NNW 04:45:08 14° NW 04:46:52 12° WNW
Unknown 4.4 04:42:58 15° WNW 04:46:04 43° N 04:50:03 10° ENE
Unknown 4.5 04:45:38 14° WNW 04:48:52 42° N 04:52:48 10° ENE
Unknown 4.4 04:46:10 14° WNW 04:49:26 43° N 04:53:24 10° ENE
S3M 4.1 04:44:20 10° NNW 04:50:17 51° W 04:56:17 10° SSW
Unknown 4.5 04:47:46 14° WNW 04:51:06 43° N 04:55:05 10° ENE
PAYLOAD A 3.7 04:46:40 10° N 04:51:26 75° WNW 04:56:05 10° SSW
Okean 1 3.7 04:47:32 10° S 04:51:28 67° E 04:55:25 10° NNE
Cosmos 1655 Rocket 4.1 04:46:40 10° SSW 04:52:46 55° WNW 04:58:58 10° N
Unknown 4.5 04:49:33 13° WNW 04:53:00 42° N 04:56:59 10° ENE
Unknown 4.5 04:50:57 13° WNW 04:54:27 42° N 04:58:25 10° ENE
Unknown 4.5 04:52:02 10° WNW 04:55:38 39° N 04:59:16 10° ENE
SJ-6F 4.4 04:51:35 10° N 04:55:46 70° WNW 04:59:56 10° SSW
Unknown 4.5 04:52:35 12° WNW 04:56:09 42° N 05:00:08 10° ENE
Okean O Rocket 4.0 04:52:34 10° NE 04:56:26 28° E 05:00:16 10° SSE
Cosmos 1346 Rocket 4.1 04:54:22 10° NW 04:57:31 22° W 05:00:39 10° SW
Cosmos 1975 3.3 04:53:34 10° N 04:57:38 67° ENE 05:01:42 10° SSE
Cosmos 2227 Rocket 2.3 04:52:22 10° NNW 04:58:05 84° ENE 05:03:47 10° SSE
USA 215 4.0 04:52:03 10° ENE 04:58:26 52° SE 05:04:47 10° SSW
Unknown 4.5 04:55:44 11° WNW 04:59:27 42° N 05:03:25 10° ENE
Cosmos 44 Rocket 3.5 04:56:27 11° SW 05:01:14 56° NW 05:06:05 10° NNE
ADEOS 4.3 04:57:57 10° N 05:02:37 34° WNW 05:07:15 10° SW
Meteor 1-18 Rocket 4.4 04:57:28 10° S 05:03:04 79° E 05:08:49 10° NNE
Cosmos 2219 3.3 04:57:32 10° NW 05:03:07 57° WSW 05:08:37 10° S
Cosmos 1536 4.1 05:00:19 10° NW 05:03:19 21° W 05:06:19 10° SW
Cosmos 1484 Rocket 3.9 05:01:20 10° NNE 05:04:58 46° E 05:08:32 10° S
Cosmos 2369 Rocket 4.1 05:02:26 10° WNW 05:05:38 15° NW 05:08:50 10° N
Okean 3 4.4 05:02:02 10° S 05:06:06 53° E 05:10:13 10° NNE
BREEZE-M DEB (TANK) 3.5 04:59:07 10° WNW 05:06:07 45° SW 05:08:57 10° SE
Unknown 4.5 05:02:54 10° WNW 05:06:37 40° N 05:10:19 10° ENE
Iridium 2 4.0 05:04:23 10° N 05:08:13 71° E 05:12:02 10° S
Cosmos 2297 Rocket 2.2 05:02:41 10° NNW 05:08:22 79° WSW 05:14:00 10° SSE
Unknown 3.6 05:04:58 10° WNW 05:08:29 62° NNE 05:12:00 10° ESE
Cosmos 1300 Rocket 4.0 05:05:34 10° N 05:09:55 68° ENE 05:14:18 10° SSE
Unknown 4.3 05:07:28 10° WNW 05:11:06 44° NNE 05:14:43 10° E
Shenzhou-11 Module 4.1 05:09:53 10° SSW 05:11:47 17° SSE 05:13:41 10° ESE
Cosmos 2292 Rocket 3.4 05:07:02 10° S 05:11:48 87° W 05:15:27 10° N
Helios 1A Rocket 4.0 05:09:35 10° NNE 05:13:34 49° E 05:17:33 10° S
Cosmos 1782 Rocket 4.1 05:09:58 10° NNW 05:13:59 35° W 05:17:57 10° SSW
Cosmos 1371 Rocket 4.1 05:10:14 10° NNW 05:15:38 84° WSW 05:20:59 10° SSE
Unknown 3.3 05:12:41 10° WNW 05:16:08 74° NNE 05:19:36 10° ESE
ATLAS 3B R/B 3.9 05:10:44 10° W 05:16:18 27° NNW 05:21:51 10° NE
H-2A R/B 3.5 05:14:16 10° N 05:17:23 24° WNW 05:20:30 10° WSW
SKYMED 2 3.6 05:14:04 10° SSE 05:18:25 88° W 05:22:48 10° NNW
EP 3 4.1 05:18:23 10° SSW 05:20:28 61° SE 05:22:36 10° NE
Unknown 4.0 05:19:37 10° W 05:22:01 24° SW 05:24:26 10° SSE
FALCON 9 DEB 3.3 05:20:26 10° WNW 05:23:58 77° NNE 05:27:29 10° ESE
Cosmos 1900 4.5 05:20:56 10° SSW 05:26:03 88° SE 05:31:10 10° NE
Cosmos 2266 Rocket 4.3 05:22:21 10° SSW 05:28:08 45° WNW 05:33:56 10° N
